Weather in Aymaki

Russia / Republic of Dagestan     42°32′18″N   47°08′01″E
temp.,
°C
wind,
m/s
gust,
m/s
humid.,
%
clouds,
%
prec.,
mm/h
press.,
hPa
HPBL,
m
19 january, wed
wed1900:00−8sw33722 0.0 101528
03:00−9ssw227311 0.0 101717
06:00−9s2273100 0.0 101614
09:00−6sw1163100 0.0 101635
12:00−2ne11523 0.0 1013320
15:00−4ne226986 0.0 1014486
18:00−7ne219499 0.1 101774
21:00−7ne1195100 0.4 1018127
20 january, thu
thu2000:00−7nne1195100 0.5 1019131
03:00−8nne1195100 0.9 1019150
06:00−8nne2294100 0.5 1020190
09:00−9nne2288100 0.9 1021308
12:00−8nne2283100 0.2 1020509
15:00−8nne2286100 0.6 1020446
18:00−9nne1193100 0.2 1022156
21:00−10nw1196100 0.3 102319
21 january, fri
fri2100:00−10wsw1195100 0.0 102424
03:00−12sw229515 0.1 102516
06:00−14sw22905 0.0 102718
09:00−11sw236654 0.0 102788
12:00−5sw225290 0.0 1023261
15:00−4sw11550 0.0 1022240
18:00−9ssw22750 0.0 102511
21:00−10ssw22763 0.0 102615
22 january, sat
sat2200:00−10ssw327419 0.0 102518
03:00−11sw32725 0.0 102318
06:00−11ssw32725 0.0 102217
09:00−6ssw33635 0.0 102049
12:00+1ssw22547 0.0 1014107
15:00+1sw11687 0.0 101310
18:00−4ssw227366 0.0 101810
21:00−5ssw227895 0.0 101914
23 january, sun
sun2300:00−5ssw227694 0.0 101915
03:00−6ssw22767 0.0 102013
06:00−7s227497 0.0 102112
09:00−4s2266100 0.0 102026
12:00+2e225673 0.0 1016135
15:00+1ese237147 0.0 101579
18:00−3se33815 0.0 101829
21:00−4sse33835 0.0 101830